Location: Unspecified
(37.6100°N, 2.7800°W)
Time: 07:58:44
(UTC+00:00)

Amateur Radio Satellites - All Passes

Search period start: 22 September 2017 07:28
Search period end: 23 September 2017 07:28
Location: Unspecified, 37.6100°N, 2.7800°W

Satellite Date Start Highest point End Downlink Frequencies (MHz)
Time Altitude Azimuth
CUBEBUG 2 22 Sep 07:31:10 07:35:49 57° 100° (E) 07:40:29 437.445
XW-2C 22 Sep 07:34:29 07:35:48 11° 294° (WNW) 07:37:06 145.795 - 145.815
UWE-3 22 Sep 07:42:25 07:46:51 43° 98° (E) 07:51:18 435.000/436.395/437.385
NUDT-PHONESAT 22 Sep 07:44:47 07:46:06 12° 294° (WNW) 07:47:25 437.300
FO-29 22 Sep 07:59:08 08:04:36 42° 72° (ENE) 08:09:38 435.910
CUTE-I 22 Sep 08:07:01 08:09:56 15° 298° (WNW) 08:12:50 437.470
HO-68 22 Sep 08:20:06 08:26:55 48° 292° (WNW) 08:33:43 435.675
XW-2A 22 Sep 08:27:42 08:30:42 28° 288° (WNW) 08:33:40 145.665 - 145.685
AO-73 22 Sep 08:32:44 08:37:19 74° 101° (E) 08:41:51 145.935
Oscar 11 22 Sep 08:34:15 08:38:30 51° 100° (E) 08:42:42 .
ZACube-1 22 Sep 08:34:22 08:38:59 87° 97° (E) 08:43:33 437.345
SEEDS 22 Sep 08:34:54 08:38:13 23° 290° (WNW) 08:41:30 437.485
PRISM 22 Sep 08:54:46 08:58:00 23° 69° (ENE) 09:01:14 437.425
UNISAT 6 22 Sep 08:56:51 09:00:59 47° 73° (ENE) 09:05:13 437.425
AAUSAT CUBESAT 2 22 Sep 09:03:22 09:06:42 24° 290° (WNW) 09:10:00 437.432
Max Valier Satellite 22 Sep 09:07:56 09:10:28 17° 94° (E) 09:12:59 145.860
CUBEBUG 2 22 Sep 09:09:26 09:11:55 14° 295° (WNW) 09:14:25 437.445
DELFI C3 22 Sep 09:14:03 09:17:30 29° 97° (E) 09:20:55 145.870
UWE-3 22 Sep 09:19:48 09:22:56 18° 293° (WNW) 09:26:04 435.000/436.395/437.385
TIGRISAT 22 Sep 09:20:54 09:25:12 82° 78° (ENE) 09:29:37 435.000
RS-15 22 Sep 09:26:52 09:34:35 18° 349° (N) 09:42:12 29.354- 29.394
FO-29 22 Sep 09:45:20 09:49:48 22° 264° (W) 09:53:59 435.910
POLYITAN 1 22 Sep 10:10:14 10:12:11 13° 65° (ENE) 10:14:08 437.675
EO-88 22 Sep 10:11:53 10:15:34 88° 290° (WNW) 10:19:12 145.990 - 145.960
AO-73 22 Sep 10:11:58 10:12:52 11° 297° (WNW) 10:13:47 145.935
Oscar 11 22 Sep 10:12:05 10:14:09 13° 295° (WNW) 10:16:12 .
AIST 2D 22 Sep 10:12:22 10:15:31 31° 73° (ENE) 10:18:41 435.315
EO-79 22 Sep 10:14:39 10:16:58 15° 66° (ENE) 10:19:19 145.935-145.965
YUBILEINY 22 Sep 10:24:46 10:29:27 16° 78° (ENE) 10:34:06 435.215
QB50P2 22 Sep 10:26:32 10:29:47 22° 69° (ENE) 10:33:03 145.880/145.840
ESTCUBE 1 22 Sep 10:27:41 10:28:53 11° 91° (E) 10:30:05 437.505/2401.250
PRISM 22 Sep 10:29:45 10:33:09 25° 264° (W) 10:36:31 437.425
UNISAT 6 22 Sep 10:35:52 10:37:58 13° 269° (W) 10:40:05 437.425
Max Valier Satellite 22 Sep 10:41:06 10:44:17 26° 289° (WNW) 10:47:25 145.860
M-CUBED/EXP-1 PRIME 22 Sep 10:44:20 10:47:02 16° 63° (ENE) 10:49:37 437.505
DELFI C3 22 Sep 10:49:22 10:52:01 18° 292° (WNW) 10:54:39 145.870
NANOSAT C BR1 22 Sep 11:02:58 11:06:58 46° 73° (ENE) 11:11:00 145.865
LO-87 22 Sep 11:14:05 11:17:40 64° 101° (E) 11:21:14 145.935 - 145.965
O/OREOS (USA 219) 22 Sep 11:21:02 11:24:41 23° 60° (ENE) 11:28:19 437.305
DUCHIFAT 1 22 Sep 11:32:15 11:36:24 88° 247° (WSW) 11:40:37 145.980
POLYITAN 1 22 Sep 11:43:26 11:47:30 49° 260° (W) 11:51:37 437.675
RS-15 22 Sep 11:44:31 11:53:38 23° 26° (NNE) 12:02:24 29.354- 29.394
AIST 2D 22 Sep 11:47:03 11:48:46 13° 267° (W) 11:50:29 435.315
EO-79 22 Sep 11:48:21 11:52:20 42° 261° (W) 11:56:21 145.935-145.965
Oscar 19 22 Sep 11:49:54 11:53:40 21° 65° (ENE) 11:57:25 437.125/150
ESTCUBE 1 22 Sep 12:01:37 12:06:03 60° 286° (WNW) 12:10:27 437.505/2401.250
QB50P2 22 Sep 12:01:49 12:05:24 27° 264° (W) 12:09:01 145.880/145.840
BUGSAT 1 22 Sep 12:14:43 12:18:41 71° 75° (ENE) 12:22:44 437.445
YUBILEINY 22 Sep 12:16:12 12:24:56 90° 273° (W) 12:33:40 435.215
M-CUBED/EXP-1 PRIME 22 Sep 12:16:58 12:21:09 42° 256° (WSW) 12:25:06 437.505
NO-84 22 Sep 12:31:23 12:35:13 50° 131° (SE) 12:38:45 435.350 FM
VELOX 1 22 Sep 12:38:09 12:42:28 57° 101° (E) 12:46:47 145.980
NANOSAT C BR1 22 Sep 12:41:04 12:42:54 13° 268° (W) 12:44:44 145.865
SPROUT 22 Sep 12:50:35 12:54:52 69° 284° (WNW) 12:59:07 437.525
Gurwin Techsat 1B 22 Sep 12:58:47 13:04:00 62° 73° (ENE) 13:09:15 435.225
50 SAT 22 Sep 13:00:01 13:02:55 28° 98° (E) 13:05:49 437.505
O/OREOS (USA 219) 22 Sep 13:00:01 13:04:07 32° 256° (WSW) 13:08:12 437.305
SO-50 22 Sep 13:10:49 13:14:40 29° 113° (ESE) 13:18:33 436.795
Oscar 19 22 Sep 13:27:38 13:32:36 46° 261° (W) 13:37:36 437.125/150
UKube-1 22 Sep 13:49:01 13:53:15 56° 101° (E) 13:57:28 .
PCSat 22 Sep 13:51:22 13:56:17 37° 110° (ESE) 14:01:15 145.827
DX 1 22 Sep 13:52:23 13:56:43 81° 285° (WNW) 14:01:03 434.975-435.025
RS-15 22 Sep 13:57:09 14:09:06 66° 55° (NE) 14:20:20 29.354- 29.394
AO-7 22 Sep 14:04:44 14:12:38 50° 65° (ENE) 14:20:32 .
NO-84 22 Sep 14:10:00 14:12:46 19° 325° (NW) 14:15:23 435.350 FM
VELOX 1 22 Sep 14:16:37 14:18:24 12° 296° (WNW) 14:20:10 145.980
YUBILEINY 22 Sep 14:17:44 14:22:56 17° 296° (WNW) 14:28:10 435.215
ITAMSAT 1 22 Sep 14:28:57 14:33:47 43° 71° (ENE) 14:38:40 435.822/435.867
50 SAT 22 Sep 14:33:39 14:35:08 12° 292° (WNW) 14:36:35 437.505
Gurwin Techsat 1B 22 Sep 14:41:29 14:44:20 15° 268° (W) 14:47:12 435.225
MOZHAYETS 4 22 Sep 14:47:36 14:51:35 28° 96° (E) 14:55:31
SO-50 22 Sep 14:51:11 14:55:03 28° 309° (NW) 14:58:57 436.795
ITUPSAT 1 22 Sep 15:01:13 15:05:42 38° 98° (E) 15:10:10 437.325
DOVE 4 22 Sep 15:23:31 15:24:06 10° 65° (ENE) 15:24:41 437.250
UKube-1 22 Sep 15:27:04 15:28:46 12° 296° (WNW) 15:30:26 .
PCSat 22 Sep 15:35:02 15:39:43 29° 307° (NW) 15:44:26 145.827
BEESAT 22 Sep 15:38:46 15:43:34 83° 287° (WNW) 15:48:22 436.000
AO-7 22 Sep 15:58:07 16:05:30 35° 262° (W) 16:12:56 .
ITAMSAT 1 22 Sep 16:09:37 16:13:24 20° 266° (W) 16:17:12 435.822/435.867
CUTE-I 22 Sep 16:09:47 16:11:08 11° 60° (ENE) 16:12:29 437.470
RS-15 22 Sep 16:10:41 16:20:37 34° 256° (WSW) 16:30:10 29.354- 29.394
MOZHAYETS 4 22 Sep 16:24:46 16:28:36 26° 291° (WNW) 16:32:26
XW-2C 22 Sep 16:38:29 16:41:02 17° 69° (ENE) 16:43:37 145.795 - 145.815
ITUPSAT 1 22 Sep 16:39:39 16:43:15 21° 294° (WNW) 16:46:50 437.325
CUBESAT XI-V 22 Sep 16:46:18 16:50:56 74° 284° (WNW) 16:55:30 437.345
NUDT-PHONESAT 22 Sep 16:47:19 16:49:31 15° 68° (ENE) 16:51:43 437.300
LilacSat-2 22 Sep 16:48:15 16:51:24 24° 71° (ENE) 16:54:34 437.200
KKS-1 22 Sep 16:55:17 16:59:32 44° 100° (E) 17:03:47 437.445
DOVE 4 22 Sep 16:56:48 17:01:18 67° 259° (W) 17:05:35 437.250
HO-68 22 Sep 17:01:09 17:05:53 19° 58° (ENE) 17:10:37 435.675
KAITUO 1B 22 Sep 17:12:01 17:15:24 32° 72° (ENE) 17:18:48 145.475/437.950
STARS 22 Sep 17:24:01 17:28:06 36° 98° (E) 17:32:10 437.465
XW-2D 22 Sep 17:37:28 17:41:18 80° 258° (WSW) 17:45:10 145.860 - 145.880
CUTE-I 22 Sep 17:45:03 17:50:22 90° 5° (N) 17:55:42 437.470
XW-2B 22 Sep 17:49:51 17:53:37 56° 259° (W) 17:57:26 145.730 - 145.750
SEEDS 22 Sep 17:49:51 17:52:14 15° 66° (ENE) 17:54:37 437.485
XW-2F 22 Sep 17:51:03 17:54:49 57° 260° (W) 17:58:37 145.980 - 146.000
XW-2C 22 Sep 18:11:37 18:14:58 29° 263° (W) 18:18:22 145.795 - 145.815
CUTE 1.7 + AOD 2 22 Sep 18:13:04 18:17:09 44° 73° (ENE) 18:21:14 437.475
AAUSAT CUBESAT 2 22 Sep 18:17:31 18:19:24 13° 66° (ENE) 18:21:19 437.432
NUDT-PHONESAT 22 Sep 18:19:43 18:23:05 31° 263° (W) 18:26:28 437.300
LilacSat-2 22 Sep 18:22:40 18:25:36 20° 265° (W) 18:28:33 437.200
CUBEBUG 2 22 Sep 18:27:33 18:31:22 34° 71° (ENE) 18:35:18 437.445
KKS-1 22 Sep 18:33:01 18:35:42 16° 295° (WNW) 18:38:23 437.445
UWE-3 22 Sep 18:37:48 18:41:20 26° 69° (ENE) 18:44:57 435.000/436.395/437.385
HO-68 22 Sep 18:45:39 18:52:47 79° 255° (WSW) 18:59:59 435.675
KAITUO 1B 22 Sep 18:47:15 18:49:26 15° 267° (W) 18:51:39 145.475/437.950
Tancredo 1 22 Sep 18:51:22 18:53:57 48° 137° (SE) 18:56:35 437.200
XW-2A 22 Sep 18:56:06 18:59:26 58° 76° (ENE) 19:02:49 145.665 - 145.685
STARS 22 Sep 19:01:05 19:04:08 19° 293° (WNW) 19:07:12 437.465
BEESAT 3 22 Sep 19:04:40 19:08:29 45° 116° (ESE) 19:12:21 437.485
NO-84 22 Sep 19:07:52 19:09:15 12° 30° (NNE) 19:10:37 435.350 FM
BEESAT 2 22 Sep 19:10:25 19:12:41 15° 109° (ESE) 19:14:58 435.950
STRAND 1 22 Sep 19:18:21 19:23:19 48° 99° (E) 19:28:16 437.568
nSIGHT-1 22 Sep 19:22:50 19:24:46 15° 129° (SE) 19:26:42 .
SEEDS 22 Sep 19:23:29 19:27:31 43° 261° (W) 19:31:35 437.485
AO-73 22 Sep 19:26:01 19:30:04 42° 73° (ENE) 19:34:15 145.935
Oscar 11 22 Sep 19:27:05 19:30:54 31° 71° (ENE) 19:34:44 .
ZACube-1 22 Sep 19:27:53 19:32:02 50° 74° (ENE) 19:36:19 437.345
AAUSAT CUBESAT 2 22 Sep 19:50:23 19:54:25 48° 261° (W) 19:58:28 437.432
CUTE 1.7 + AOD 2 22 Sep 19:50:57 19:53:10 14° 268° (W) 19:55:23 437.475
DELFI C3 22 Sep 19:58:41 20:00:42 14° 67° (ENE) 20:02:44 145.870
CUBEBUG 2 22 Sep 20:05:15 20:08:05 17° 267° (W) 20:10:58 437.445
JUGNU 22 Sep 20:09:49 20:12:29 13° 178° (S) 20:15:09 437.505
UWE-3 22 Sep 20:14:14 20:17:42 24° 265° (W) 20:21:16 435.000/436.395/437.385
ISS 22 Sep 20:15:34 20:18:45 53° 136° (SE) 20:21:58 437.550
AO-85 22 Sep 20:16:34 20:20:28 86° 296° (WNW) 20:24:24 145.980
Tancredo 1 22 Sep 20:27:01 20:28:40 15° 333° (NNW) 20:30:19 437.200
HO-68 22 Sep 20:39:40 20:41:29 11° 272° (W) 20:43:18 435.675
BEESAT 3 22 Sep 20:43:41 20:46:16 16° 313° (NW) 20:48:52 437.485
NO-84 22 Sep 20:44:02 20:46:54 55° 228° (SW) 20:49:40 435.350 FM
BEESAT 2 22 Sep 20:46:14 20:50:02 42° 305° (NW) 20:53:54 435.950
EO-88 22 Sep 20:47:42 20:50:49 27° 72° (ENE) 20:53:58 145.990 - 145.960
UNISAT 6 22 Sep 20:51:57 20:53:58 13° 91° (E) 20:55:59 437.425
FO-29 22 Sep 20:53:27 20:58:44 44° 100° (E) 21:04:35 435.910
nSIGHT-1 22 Sep 20:57:41 21:00:48 46° 324° (NW) 21:03:57 .
STRAND 1 22 Sep 20:58:31 21:02:06 19° 295° (WNW) 21:05:42 437.568
Oscar 11 22 Sep 21:03:46 21:07:02 21° 266° (W) 21:10:19 .
AO-73 22 Sep 21:04:03 21:06:30 15° 268° (W) 21:09:00 145.935
ZACube-1 22 Sep 21:06:50 21:08:38 12° 270° (W) 21:10:26 437.345
TIGRISAT 22 Sep 21:14:42 21:18:15 21° 94° (E) 21:21:48 435.000
Max Valier Satellite 22 Sep 21:16:58 21:20:40 85° 261° (W) 21:24:24 145.860
DELFI C3 22 Sep 21:31:21 21:35:05 39° 262° (W) 21:38:49 145.870
SRMSAT 22 Sep 21:34:19 21:34:51 10° 169° (S) 21:35:22 437.500
SO-50 22 Sep 21:43:47 21:47:00 18° 47° (NE) 21:50:14 436.795
LO-87 22 Sep 21:48:56 21:51:24 18° 70° (ENE) 21:53:52 145.935 - 145.965
ISS 22 Sep 21:52:59 21:55:26 19° 333° (NNW) 21:57:54 437.550
JUGNU 22 Sep 21:58:48 22:00:37 11° 188° (S) 22:02:27 437.505
PRISM 22 Sep 22:11:56 22:15:51 46° 100° (E) 22:19:45 437.425
EO-88 22 Sep 22:22:08 22:24:28 16° 266° (W) 22:26:50 145.990 - 145.960
UNISAT 6 22 Sep 22:26:22 22:30:58 58° 286° (WNW) 22:35:35 437.425
YUBILEINY 22 Sep 22:29:02 22:37:10 41° 75° (ENE) 22:45:16 435.215
nSIGHT-1 22 Sep 22:36:53 22:37:47 11° 342° (NNW) 22:38:42 .
FO-29 22 Sep 22:39:23 22:43:37 23° 293° (WNW) 22:48:09 435.910
PCSat 22 Sep 22:41:17 22:45:29 22° 50° (NE) 22:49:37 145.827
TIGRISAT 22 Sep 22:50:43 22:54:58 35° 289° (WNW) 22:59:13 435.000
ESTCUBE 1 22 Sep 22:58:37 23:03:09 86° 258° (WSW) 23:07:43 437.505/2401.250
AIST 2D 22 Sep 23:11:43 23:15:09 49° 99° (E) 23:18:32 435.315
DUCHIFAT 1 22 Sep 23:19:03 23:21:48 17° 93° (E) 23:24:32 145.980
SRMSAT 22 Sep 23:20:26 23:23:08 13° 179° (S) 23:25:50 437.500
LO-87 22 Sep 23:21:51 23:24:39 22° 264° (W) 23:27:28 145.935 - 145.965
SO-50 22 Sep 23:23:16 23:27:45 52° 243° (WSW) 23:32:16 436.795
POLYITAN 1 22 Sep 23:30:08 23:33:53 29° 97° (E) 23:37:37 437.675
VELOX 1 22 Sep 23:33:18 23:37:23 39° 72° (ENE) 23:41:30 145.980
EO-79 22 Sep 23:34:41 23:38:33 33° 97° (E) 23:42:24 145.935-145.965
SPROUT 22 Sep 23:41:29 23:45:40 67° 75° (ENE) 23:49:53 437.525
QB50P2 22 Sep 23:47:36 23:51:48 52° 100° (E) 23:55:59 145.880/145.840
PRISM 22 Sep 23:48:54 23:50:42 13° 295° (WNW) 23:52:29 437.425
BUGSAT 1 23 Sep 00:00:04 00:01:42 12° 92° (E) 00:03:19 437.445
PCSat 23 Sep 00:23:54 00:29:10 52° 248° (WSW) 00:34:23 145.827
NANOSAT C BR1 23 Sep 00:24:15 00:28:30 71° 285° (WNW) 00:32:44 145.865
YUBILEINY 23 Sep 00:25:57 00:33:50 40° 273° (W) 00:41:44 435.215
UKube-1 23 Sep 00:41:26 00:45:23 36° 71° (ENE) 00:49:20 .
DX 1 23 Sep 00:45:35 00:49:52 67° 75° (ENE) 00:54:11 434.975-435.025
DUCHIFAT 1 23 Sep 00:53:39 00:57:33 36° 288° (WNW) 01:01:27 145.980
50 SAT 23 Sep 00:59:37 01:02:49 50° 259° (W) 01:06:04 437.505
POLYITAN 1 23 Sep 01:06:11 01:09:28 22° 291° (WNW) 01:12:44 437.675
SRMSAT 23 Sep 01:10:11 01:11:25 11° 190° (S) 01:12:40 437.500
EO-79 23 Sep 01:11:00 01:14:03 19° 292° (WNW) 01:17:05 145.935-145.965
VELOX 1 23 Sep 01:11:10 01:13:57 16° 266° (W) 01:16:45 145.980
Tancredo 1 23 Sep 01:13:07 01:15:21 23° 32° (NNE) 01:17:36 437.200
Gurwin Techsat 1B 23 Sep 01:17:22 01:21:55 28° 96° (E) 01:26:26 435.225
QB50P2 23 Sep 01:25:13 01:27:06 13° 295° (WNW) 01:29:00 145.880/145.840
O/OREOS (USA 219) 23 Sep 01:31:03 01:35:07 35° 104° (ESE) 01:39:13 437.305
M-CUBED/EXP-1 PRIME 23 Sep 01:31:47 01:34:50 34° 292° (WNW) 01:37:49 437.505
BUGSAT 1 23 Sep 01:33:13 01:37:17 50° 286° (WNW) 01:41:22 437.445
Oscar 19 23 Sep 01:40:50 01:46:01 73° 103° (ESE) 01:51:08 437.125/150
MOZHAYETS 4 23 Sep 01:47:51 01:51:22 22° 68° (ENE) 01:54:56
nSIGHT-1 23 Sep 01:50:58 01:52:57 15° 23° (NNE) 01:54:55 .
ITUPSAT 1 23 Sep 02:06:01 02:10:21 36° 70° (ENE) 02:14:42 437.325
AO-7 23 Sep 02:10:37 02:15:10 16° 91° (E) 02:19:41 .
UKube-1 23 Sep 02:18:41 02:21:29 17° 266° (W) 02:24:18 .
BEESAT 23 Sep 02:42:55 02:47:41 90° 271° (W) 02:52:28 436.000
ITAMSAT 1 23 Sep 02:44:38 02:48:02 17° 93° (E) 02:51:26 435.822/435.867
ISS 23 Sep 02:45:07 02:48:07 32° 33° (NNE) 02:51:07 437.550
Tancredo 1 23 Sep 02:47:36 02:49:49 23° 227° (SW) 02:52:02 437.200
Gurwin Techsat 1B 23 Sep 02:57:07 03:01:49 33° 291° (WNW) 03:06:30 435.225
O/OREOS (USA 219) 23 Sep 03:11:12 03:14:35 21° 301° (WNW) 03:18:00 437.305
Oscar 19 23 Sep 03:22:20 03:24:39 13° 299° (WNW) 03:26:59 437.125/150
BEESAT 3 23 Sep 03:23:50 03:26:25 16° 47° (NE) 03:28:58 437.485
MOZHAYETS 4 23 Sep 03:24:09 03:28:18 33° 263° (W) 03:32:30
nSIGHT-1 23 Sep 03:26:24 03:29:40 87° 215° (SW) 03:32:54 .
ITUPSAT 1 23 Sep 03:44:37 03:48:14 21° 265° (W) 03:51:52 437.325
CUBESAT XI-V 23 Sep 03:47:04 03:51:47 86° 75° (ENE) 03:56:30 437.345
KKS-1 23 Sep 03:51:27 03:55:23 32° 70° (ENE) 03:59:20 437.445
AO-7 23 Sep 04:00:31 04:08:52 88° 110° (ESE) 04:17:10 .
RS-15 23 Sep 04:16:34 04:28:07 52° 109° (ESE) 04:39:47 29.354- 29.394
STARS 23 Sep 04:18:56 04:22:31 26° 69° (ENE) 04:26:07 437.465
ISS 23 Sep 04:21:47 04:24:29 23° 229° (SW) 04:27:10 437.550
ITAMSAT 1 23 Sep 04:22:43 04:27:45 51° 288° (WNW) 04:32:46 435.822/435.867
AO-85 23 Sep 04:48:33 04:52:52 45° 56° (NE) 04:57:29 145.980
DOVE 4 23 Sep 04:57:02 05:00:56 34° 98° (E) 05:04:58 437.250
BEESAT 3 23 Sep 05:00:25 05:04:11 43° 245° (WSW) 05:07:52 437.485
BEESAT 2 23 Sep 05:05:16 05:09:16 58° 58° (ENE) 05:13:12 435.950
XW-2D 23 Sep 05:13:43 05:15:12 12° 92° (E) 05:16:40 145.860 - 145.880
XW-2B 23 Sep 05:25:11 05:27:37 16° 93° (E) 05:30:02 145.730 - 145.750
XW-2F 23 Sep 05:26:01 05:28:21 16° 93° (E) 05:30:40 145.980 - 146.000
KKS-1 23 Sep 05:28:41 05:31:57 20° 265° (W) 05:35:14 437.445
XW-2C 23 Sep 05:45:41 05:49:04 30° 97° (E) 05:52:25 145.795 - 145.815
NUDT-PHONESAT 23 Sep 05:51:43 05:54:49 24° 96° (E) 05:57:53 437.300
AO-7 23 Sep 05:55:02 06:00:34 20° 306° (NW) 06:06:05 .
STARS 23 Sep 05:55:11 05:58:46 25° 264° (W) 06:02:21 437.465
LilacSat-2 23 Sep 05:56:39 06:00:21 45° 99° (E) 06:04:00 437.200
CUTE-I 23 Sep 06:04:08 06:09:10 42° 99° (E) 06:14:12 437.470
HO-68 23 Sep 06:16:34 06:21:58 22° 94° (E) 06:27:20 435.675
KAITUO 1B 23 Sep 06:18:18 06:21:59 59° 100° (E) 06:25:39 145.475/437.950
RS-15 23 Sep 06:28:52 06:40:40 50° 311° (NW) 06:52:33 29.354- 29.394
AO-85 23 Sep 06:29:49 06:33:01 19° 249° (WSW) 06:36:20 145.980
STRAND 1 23 Sep 06:32:14 06:37:12 56° 72° (ENE) 06:42:12 437.568
DOVE 4 23 Sep 06:35:27 06:38:24 19° 291° (WNW) 06:41:25 437.250
BEESAT 2 23 Sep 06:45:43 06:46:26 10° 253° (WSW) 06:47:10 435.950
XW-2D 23 Sep 06:45:58 06:49:32 39° 287° (WNW) 06:53:04 145.860 - 145.880
XW-2B 23 Sep 06:58:30 07:01:49 29° 288° (WNW) 07:05:07 145.730 - 145.750
XW-2F 23 Sep 06:59:11 07:02:30 29° 288° (WNW) 07:05:48 145.980 - 146.000
FO-29 23 Sep 07:07:07 07:09:56 14° 63° (ENE) 07:12:40 435.910
SEEDS 23 Sep 07:09:04 07:12:51 33° 97° (E) 07:16:37 437.485
ZACube-1 23 Sep 07:19:50 07:21:45 12° 91° (E) 07:23:39 437.345
XW-2C 23 Sep 07:20:35 07:22:59 16° 292° (WNW) 07:25:23 145.795 - 145.815
